Time,TemperatureF,DewpointF,PressureIn,WindDirection,WindDirectionDegrees,WindSpeedMPH,WindSpeedGustMPH,Humidity,HourlyPrecipIn,Conditions,Clouds,dailyrainin,SoftwareType,DateUTC
2013-08-09 00:01:00,72.6,68.8,30.01,SSW,204,1.0,9.0,88,0.01,,BKN160,0.01,VWS V14.01,2013-08-09 04:01:00,
2013-08-09 00:06:00,72.5,68.8,30.00,South,190,1.0,7.0,88,0.00,,BKN160,0.00,VWS V14.01,2013-08-09 04:06:00,
2013-08-09 00:11:00,72.4,68.7,30.00,SSW,194,2.0,7.0,88,0.00,,BKN160,0.00,VWS V14.01,2013-08-09 04:11:00,
2013-08-09 00:16:00,72.4,69.0,30.01,SSW,196,2.0,7.0,89,0.00,,BKN160,0.00,VWS V14.01,2013-08-09 04:16:00,
2013-08-09 00:21:00,72.3,68.9,30.01,South,181,0.0,7.0,89,0.00,,BKN160,0.00,VWS V14.01,2013-08-09 04:21:00,
2013-08-09 00:26:00,72.2,68.8,30.00,SSW,193,6.0,8.0,89,0.00,,BKN160,0.00,VWS V14.01,2013-08-09 04:26:00,
2013-08-09 00:31:00,72.1,68.7,30.01,South,186,0.0,8.0,89,0.00,,BKN160,0.00,VWS V14.01,2013-08-09 04:31:00,
2013-08-09 00:36:00,72.1,68.7,30.01,South,186,0.0,5.0,89,0.00,,BKN160,0.00,VWS V14.01,2013-08-09 04:36:00,
2013-08-09 00:41:00,72.0,68.9,30.00,South,186,0.0,7.0,90,0.00,,BKN160,0.00,VWS V14.01,2013-08-09 04:41:00,
2013-08-09 00:46:00,72.0,68.6,30.00,SSW,200,0.0,7.0,89,0.00,,BKN160,0.00,VWS V14.01,2013-08-09 04:46:00,
2013-08-09 00:51:00,72.0,68.9,30.00,SSW,196,4.0,7.0,90,0.00,,BKN160,0.00,VWS V14.01,2013-08-09 04:51:00,
2013-08-09 00:56:00,71.9,68.8,30.00,SSW,194,5.0,7.0,90,0.00,,BKN160,0.00,VWS V14.01,2013-08-09 04:56:00,
2013-08-09 01:01:00,71.8,68.7,30.00,South,191,3.0,7.0,90,0.00,,BKN160,0.00,VWS V14.01,2013-08-09 05:01:00,
2013-08-09 01:06:00,71.8,68.7,30.00,South,184,3.0,6.0,90,0.00,,BKN160,0.00,VWS V14.01,2013-08-09 05:06:00,
2013-08-09 01:11:00,71.7,68.6,30.00,South,190,2.0,6.0,90,0.00,,BKN160,0.00,VWS V14.01,2013-08-09 05:11:00,
2013-08-09 01:16:00,71.6,68.5,30.00,SSW,208,2.0,6.0,90,0.00,,BKN160,0.00,VWS V14.01,2013-08-09 05:16:00,
2013-08-09 01:21:00,71.6,68.5,30.00,SSW,208,3.0,6.0,90,0.00,,BKN012,0.00,VWS V14.01,2013-08-09 05:21:00,
2013-08-09 01:26:00,71.6,68.5,30.00,SSW,208,1.0,6.0,90,0.00,,BKN012,0.00,VWS V14.01,2013-08-09 05:26:00,
2013-08-09 01:31:00,71.6,68.5,30.00,SSW,207,4.0,6.0,90,0.00,,BKN012,0.00,VWS V14.01,2013-08-09 05:31:00,
2013-08-09 01:36:00,71.5,68.7,30.00,South,190,4.0,6.0,91,0.00,,BKN012,0.00,VWS V14.01,2013-08-09 05:36:00,
2013-08-09 01:41:00,71.6,68.8,30.00,South,178,2.0,6.0,91,0.00,,BKN012,0.00,VWS V14.01,2013-08-09 05:41:00,
2013-08-09 01:46:00,71.6,68.8,30.00,SSW,196,6.0,8.0,91,0.00,,BKN012,0.00,VWS V14.01,2013-08-09 05:46:00,
2013-08-09 01:51:00,71.7,68.9,30.00,South,182,4.0,9.0,91,0.00,,BKN012,0.00,VWS V14.01,2013-08-09 05:51:00,
2013-08-09 01:56:00,71.7,68.9,30.00,South,184,4.0,9.0,91,0.00,,BKN012,0.00,VWS V14.01,2013-08-09 05:56:00,
2013-08-09 02:01:00,71.7,68.6,29.99,SSW,195,0.0,9.0,90,0.00,,BKN012,0.00,VWS V14.01,2013-08-09 06:01:00,
2013-08-09 02:06:00,71.7,68.6,29.99,South,188,3.0,6.0,90,0.00,,BKN012,0.00,VWS V14.01,2013-08-09 06:06:00,
2013-08-09 02:11:00,71.7,68.6,29.99,SSE,156,6.0,6.0,90,0.00,,BKN012,0.00,VWS V14.01,2013-08-09 06:11:00,
2013-08-09 02:16:00,71.8,68.7,29.99,South,183,0.0,7.0,90,0.00,,BKN012,0.00,VWS V14.01,2013-08-09 06:16:00,
2013-08-09 02:21:00,71.7,68.6,29.98,SSW,196,5.0,7.0,90,0.00,,BKN012,0.00,VWS V14.01,2013-08-09 06:21:00,
2013-08-09 02:26:00,71.8,68.7,29.99,SSW,202,2.0,7.0,90,0.00,,BKN012,0.00,VWS V14.01,2013-08-09 06:26:00,
2013-08-09 02:31:00,71.9,68.8,29.99,SSW,194,2.0,9.0,90,0.00,,BKN012,0.00,VWS V14.01,2013-08-09 06:31:00,
2013-08-09 02:36:00,72.0,68.9,29.99,SSW,197,3.0,9.0,90,0.00,,BKN012,0.00,VWS V14.01,2013-08-09 06:36:00,
2013-08-09 02:41:00,72.0,68.9,29.99,South,172,1.0,9.0,90,0.00,,FEW012,0.00,VWS V14.01,2013-08-09 06:41:00,
2013-08-09 02:46:00,72.0,68.9,29.98,South,178,0.0,9.0,90,0.00,,FEW012,0.00,VWS V14.01,2013-08-09 06:46:00,
2013-08-09 02:51:00,72.1,69.0,29.98,South,191,2.0,9.0,90,0.00,,FEW012,0.00,VWS V14.01,2013-08-09 06:51:00,
2013-08-09 02:56:00,72.1,69.0,29.98,South,191,3.0,9.0,90,0.00,,FEW012,0.00,VWS V14.01,2013-08-09 06:56:00,
2013-08-09 03:01:00,72.1,69.0,29.98,SSW,192,2.0,9.0,90,0.00,,FEW012,0.00,VWS V14.01,2013-08-09 07:01:00,
2013-08-09 03:06:00,72.1,69.0,29.98,South,190,3.0,4.0,90,0.00,,FEW012,0.00,VWS V14.01,2013-08-09 07:06:00,
2013-08-09 03:11:00,72.1,68.7,29.98,South,170,0.0,5.0,89,0.00,,FEW012,0.00,VWS V14.01,2013-08-09 07:11:00,
2013-08-09 03:16:00,72.1,68.7,29.98,South,181,0.0,7.0,89,0.00,,FEW012,0.00,VWS V14.01,2013-08-09 07:16:00,
2013-08-09 03:21:00,72.1,68.7,29.98,SSW,193,2.0,9.0,89,0.00,,FEW012,0.00,VWS V14.01,2013-08-09 07:21:00,
2013-08-09 03:26:00,72.1,68.7,29.98,South,174,6.0,9.0,89,0.00,,FEW012,0.00,VWS V14.01,2013-08-09 07:26:00,
2013-08-09 03:31:00,72.0,68.6,29.98,SSW,205,5.0,9.0,89,0.00,,FEW012,0.00,VWS V14.01,2013-08-09 07:31:00,
2013-08-09 03:36:00,72.0,68.6,29.98,South,180,0.0,7.0,89,0.00,,FEW012,0.00,VWS V14.01,2013-08-09 07:36:00,
2013-08-09 03:41:00,71.9,68.5,29.98,South,178,0.0,7.0,89,0.00,,FEW012,0.00,VWS V14.01,2013-08-09 07:41:00,
2013-08-09 03:46:00,71.9,68.5,29.98,SSW,195,3.0,7.0,89,0.00,,FEW012,0.00,VWS V14.01,2013-08-09 07:46:00,
2013-08-09 03:51:00,71.9,68.5,29.98,SSW,202,6.0,8.0,89,0.00,,FEW012,0.00,VWS V14.01,2013-08-09 07:51:00,
2013-08-09 03:56:00,72.0,68.6,29.97,South,188,2.0,10.0,89,0.00,,FEW012,0.00,VWS V14.01,2013-08-09 07:56:00,
2013-08-09 04:01:00,71.9,68.5,29.97,South,178,4.0,10.0,89,0.00,,CLR,0.00,VWS V14.01,2013-08-09 08:01:00,
2013-08-09 04:06:00,71.9,68.5,29.97,South,180,1.0,8.0,89,0.00,,CLR,0.00,VWS V14.01,2013-08-09 08:06:00,
2013-08-09 04:11:00,71.9,68.5,29.97,SSW,193,3.0,8.0,89,0.00,,CLR,0.00,VWS V14.01,2013-08-09 08:11:00,
2013-08-09 04:16:00,71.9,68.5,29.97,South,183,5.0,8.0,89,0.00,,CLR,0.00,VWS V14.01,2013-08-09 08:16:00,
2013-08-09 04:21:00,71.9,68.5,29.97,South,186,1.0,8.0,89,0.00,,CLR,0.00,VWS V14.01,2013-08-09 08:21:00,
2013-08-09 04:26:00,71.9,68.8,29.97,SSW,197,6.0,9.0,90,0.00,,CLR,0.00,VWS V14.01,2013-08-09 08:26:00,
2013-08-09 04:31:00,71.9,68.8,29.97,SSW,209,4.0,9.0,90,0.00,,CLR,0.00,VWS V14.01,2013-08-09 08:31:00,
2013-08-09 04:36:00,71.9,68.8,29.97,SSW,199,6.0,10.0,90,0.00,,CLR,0.00,VWS V14.01,2013-08-09 08:36:00,
2013-08-09 04:41:00,71.8,68.7,29.97,SSW,198,2.0,10.0,90,0.00,,CLR,0.00,VWS V14.01,2013-08-09 08:41:00,
2013-08-09 04:46:00,71.8,68.7,29.97,South,181,2.0,10.0,90,0.00,,CLR,0.00,VWS V14.01,2013-08-09 08:46:00,
2013-08-09 04:51:00,71.8,68.7,29.97,South,173,5.0,12.0,90,0.00,,CLR,0.00,VWS V14.01,2013-08-09 08:51:00,
2013-08-09 04:56:00,71.7,68.6,29.97,South,182,2.0,12.0,90,0.00,,CLR,0.00,VWS V14.01,2013-08-09 08:56:00,
2013-08-09 05:01:00,71.7,68.6,29.97,SSW,213,2.0,12.0,90,0.00,,FEW160,0.00,VWS V14.01,2013-08-09 09:01:00,
2013-08-09 05:06:00,71.7,68.6,29.97,South,182,3.0,12.0,90,0.00,,FEW160,0.00,VWS V14.01,2013-08-09 09:06:00,
2013-08-09 05:10:00,71.7,68.6,29.97,South,188,3.0,12.0,90,0.00,,FEW160,0.00,VWS V14.01,2013-08-09 09:10:00,
2013-08-09 05:15:00,71.7,68.6,29.97,South,186,3.0,12.0,90,0.00,,FEW160,0.00,VWS V14.01,2013-08-09 09:15:00,
2013-08-09 05:20:00,71.8,68.7,29.97,South,186,3.0,12.0,90,0.00,,FEW160,0.00,VWS V14.01,2013-08-09 09:20:00,
2013-08-09 05:25:00,71.8,68.7,29.97,SSW,195,2.0,12.0,90,0.00,,FEW160,0.00,VWS V14.01,2013-08-09 09:25:00,
2013-08-09 05:30:00,71.8,68.7,29.96,South,182,9.0,12.0,90,0.00,,FEW160,0.00,VWS V14.01,2013-08-09 09:30:00,
2013-08-09 05:35:00,71.8,68.7,29.96,South,174,4.0,10.0,90,0.00,,FEW160,0.00,VWS V14.01,2013-08-09 09:35:00,
2013-08-09 05:40:00,71.7,68.6,29.97,SSW,192,8.0,10.0,90,0.00,,FEW160,0.00,VWS V14.01,2013-08-09 09:40:00,
2013-08-09 05:45:00,71.7,68.6,29.96,SSW,194,6.0,11.0,90,0.00,,FEW160,0.00,VWS V14.01,2013-08-09 09:45:00,
2013-08-09 05:50:00,71.7,68.6,29.96,South,190,3.0,11.0,90,0.00,,FEW160,0.00,VWS V14.01,2013-08-09 09:50:00,
2013-08-09 05:55:00,71.7,68.6,29.96,SSW,195,4.0,11.0,90,0.00,,FEW160,0.00,VWS V14.01,2013-08-09 09:55:00,
2013-08-09 06:00:00,71.7,68.6,29.96,South,180,2.0,11.0,90,0.00,,OVC200,0.00,VWS V14.01,2013-08-09 10:00:00,
2013-08-09 06:05:00,71.7,68.6,29.96,SSW,210,4.0,10.0,90,0.00,,OVC200,0.00,VWS V14.01,2013-08-09 10:05:00,
2013-08-09 06:10:00,71.7,68.9,29.97,SSE,168,6.0,10.0,91,0.00,,OVC200,0.00,VWS V14.01,2013-08-09 10:10:00,
2013-08-09 06:15:00,71.7,68.9,29.96,SSW,209,5.0,11.0,91,0.00,,OVC200,0.00,VWS V14.01,2013-08-09 10:15:00,
2013-08-09 06:20:00,71.8,68.7,29.96,SSW,202,4.0,11.0,90,0.00,,OVC200,0.00,VWS V14.01,2013-08-09 10:20:00,
2013-08-09 06:25:00,71.9,68.8,29.96,South,186,5.0,14.0,90,0.00,,OVC200,0.00,VWS V14.01,2013-08-09 10:25:00,
2013-08-09 06:30:00,72.0,68.9,29.97,South,178,6.0,14.0,90,0.00,,OVC200,0.00,VWS V14.01,2013-08-09 10:30:00,
2013-08-09 06:35:00,72.0,68.9,29.97,SSW,195,7.0,10.0,90,0.00,,OVC200,0.00,VWS V14.01,2013-08-09 10:35:00,
2013-08-09 06:40:00,72.1,69.0,29.97,SSW,192,7.0,10.0,90,0.00,,OVC200,0.00,VWS V14.01,2013-08-09 10:40:00,
2013-08-09 06:45:00,72.2,69.1,29.97,SSW,197,4.0,10.0,90,0.00,,OVC200,0.00,VWS V14.01,2013-08-09 10:45:00,
2013-08-09 06:50:00,72.2,69.1,29.97,SSE,168,6.0,10.0,90,0.00,,OVC200,0.00,VWS V14.01,2013-08-09 10:50:00,
2013-08-09 06:55:00,72.2,69.1,29.97,South,178,4.0,10.0,90,0.00,,OVC200,0.00,VWS V14.01,2013-08-09 10:55:00,
2013-08-09 07:00:00,72.2,69.1,29.97,SSW,207,6.0,10.0,90,0.00,,-RA,0.00,VWS V14.01,2013-08-09 11:00:00,
2013-08-09 07:05:00,72.2,69.1,29.97,SE,129,8.0,8.0,90,0.00,,-RA,0.00,VWS V14.01,2013-08-09 11:05:00,
2013-08-09 07:10:00,72.2,69.1,29.97,South,184,3.0,9.0,90,0.00,,-RA,0.00,VWS V14.01,2013-08-09 11:10:00,
2013-08-09 07:15:00,72.2,69.4,29.98,South,180,5.0,12.0,91,0.00,,-RA,0.00,VWS V14.01,2013-08-09 11:15:00,
2013-08-09 07:20:00,72.3,69.2,29.98,SSE,167,8.0,12.0,90,0.00,,-RA,0.00,VWS V14.01,2013-08-09 11:20:00,
2013-08-09 07:25:00,72.3,69.2,29.98,South,186,1.0,12.0,90,0.00,,-RA,0.00,VWS V14.01,2013-08-09 11:25:00,
2013-08-09 07:30:00,72.4,69.3,29.97,South,190,2.0,12.0,90,0.00,,OVC110,0.00,VWS V14.01,2013-08-09 11:30:00,
2013-08-09 07:35:00,72.5,69.4,29.97,South,175,8.0,8.0,90,0.00,,OVC110,0.00,VWS V14.01,2013-08-09 11:35:00,
2013-08-09 07:41:00,72.6,69.5,29.97,South,190,4.0,10.0,90,0.00,,OVC110,0.00,VWS V14.01,2013-08-09 11:41:00,
2013-08-09 07:46:00,72.6,69.5,29.97,South,170,5.0,10.0,90,0.00,,OVC110,0.00,VWS V14.01,2013-08-09 11:46:00,
2013-08-09 07:51:00,72.6,69.5,29.97,South,182,2.0,10.0,90,0.00,,OVC110,0.00,VWS V14.01,2013-08-09 11:51:00,
2013-08-09 07:56:00,72.6,69.5,29.97,WSW,247,6.0,12.0,90,0.00,,OVC110,0.00,VWS V14.01,2013-08-09 11:56:00,
2013-08-09 08:01:00,72.6,69.5,29.97,South,178,4.0,12.0,90,0.00,,-RA,0.00,VWS V14.01,2013-08-09 12:01:00,
2013-08-09 08:06:00,72.6,69.5,29.97,SSW,196,2.0,10.0,90,0.00,,-RA,0.00,VWS V14.01,2013-08-09 12:06:00,
2013-08-09 08:11:00,72.6,69.5,29.97,SSW,208,6.0,11.0,90,0.00,,-RA,0.00,VWS V14.01,2013-08-09 12:11:00,
2013-08-09 08:16:00,72.7,69.6,29.97,South,187,2.0,11.0,90,0.00,,-RA,0.00,VWS V14.01,2013-08-09 12:16:00,
2013-08-09 08:21:00,72.6,69.5,29.97,SSE,149,6.0,11.0,90,0.00,,-RA,0.00,VWS V14.01,2013-08-09 12:21:00,
2013-08-09 08:26:00,72.6,69.5,29.97,SW,218,4.0,11.0,90,0.00,,-RA,0.00,VWS V14.01,2013-08-09 12:26:00,
2013-08-09 08:31:00,72.6,69.5,29.97,SSW,213,8.0,11.0,90,0.00,,-RA,0.00,VWS V14.01,2013-08-09 12:31:00,
2013-08-09 08:35:00,72.5,69.4,29.96,SSW,192,1.0,7.0,90,0.00,,-RA,0.00,VWS V14.01,2013-08-09 12:35:00,
2013-08-09 08:40:00,72.5,69.7,29.96,SSW,205,0.0,7.0,91,0.00,,-RA,0.00,VWS V14.01,2013-08-09 12:40:00,
2013-08-09 08:45:00,72.5,69.7,29.96,South,182,6.0,10.0,91,0.00,,-RA,0.00,VWS V14.01,2013-08-09 12:45:00,
2013-08-09 08:50:00,72.4,69.6,29.96,SSW,194,6.0,10.0,91,0.00,,-RA,0.00,VWS V14.01,2013-08-09 12:50:00,
2013-08-09 08:56:00,72.3,69.5,29.96,South,172,1.0,12.0,91,0.00,,-RA,0.00,VWS V14.01,2013-08-09 12:56:00,
2013-08-09 09:00:00,72.3,69.5,29.96,SSW,193,0.0,12.0,91,0.00,,-RA,0.00,VWS V14.01,2013-08-09 13:00:00,
2013-08-09 09:05:00,72.3,69.8,29.96,South,182,3.0,5.0,92,0.00,,-RA,0.00,VWS V14.01,2013-08-09 13:05:00,
2013-08-09 09:10:00,72.2,69.8,29.96,South,184,4.0,8.0,92,0.00,,-RA,0.00,VWS V14.01,2013-08-09 13:10:00,
2013-08-09 09:15:00,72.1,69.7,29.96,SSW,196,4.0,8.0,92,0.00,,-RA,0.00,VWS V14.01,2013-08-09 13:15:00,
2013-08-09 09:20:00,72.0,69.6,29.96,South,180,5.0,10.0,92,0.00,,-RA,0.00,VWS V14.01,2013-08-09 13:20:00,
2013-08-09 09:25:00,72.0,69.6,29.95,SSW,194,5.0,11.0,92,0.00,,-RA,0.00,VWS V14.01,2013-08-09 13:25:00,
2013-08-09 09:30:00,71.9,69.4,29.95,South,182,2.0,11.0,92,0.00,,-RA,0.00,VWS V14.01,2013-08-09 13:30:00,
2013-08-09 09:35:00,71.9,69.8,29.95,South,170,6.0,6.0,93,0.00,,-RA,0.00,VWS V14.01,2013-08-09 13:35:00,
2013-08-09 09:41:00,71.9,69.8,29.95,South,190,5.0,8.0,93,0.00,,-RA,0.00,VWS V14.01,2013-08-09 13:41:00,
2013-08-09 09:45:00,71.8,69.7,29.95,South,188,1.0,8.0,93,0.00,,-RA,0.00,VWS V14.01,2013-08-09 13:45:00,
2013-08-09 09:51:00,71.8,69.7,29.95,South,184,0.0,8.0,93,0.00,,-RA,0.00,VWS V14.01,2013-08-09 13:51:00,
2013-08-09 09:55:00,71.8,69.7,29.95,South,190,5.0,8.0,93,0.00,,-RA,0.00,VWS V14.01,2013-08-09 13:55:00,
2013-08-09 10:00:00,71.9,69.8,29.94,South,187,4.0,8.0,93,0.00,,-RA,0.00,VWS V14.01,2013-08-09 14:00:00,
2013-08-09 10:05:00,71.9,69.8,29.94,South,187,2.0,8.0,93,0.00,,-RA,0.00,VWS V14.01,2013-08-09 14:05:00,
2013-08-09 10:10:00,71.9,70.1,29.94,South,169,8.0,10.0,94,0.00,,-RA,0.00,VWS V14.01,2013-08-09 14:10:00,
2013-08-09 10:15:00,71.9,70.1,29.94,SE,146,6.0,10.0,94,0.00,,-RA,0.00,VWS V14.01,2013-08-09 14:15:00,
2013-08-09 10:20:00,71.9,70.1,29.93,South,177,0.0,10.0,94,0.00,,-RA,0.00,VWS V14.01,2013-08-09 14:20:00,
2013-08-09 10:25:00,71.9,70.1,29.94,SSW,202,2.0,10.0,94,0.00,,-RA,0.00,VWS V14.01,2013-08-09 14:25:00,
2013-08-09 10:31:00,72.0,70.2,29.94,SSE,153,5.0,10.0,94,0.00,,-RA,0.00,VWS V14.01,2013-08-09 14:31:00,
2013-08-09 10:36:00,72.0,70.2,29.94,South,171,1.0,7.0,94,0.00,,-RA,0.00,VWS V14.01,2013-08-09 14:36:00,
2013-08-09 10:41:00,72.0,70.2,29.93,SSW,193,0.0,7.0,94,0.00,,-RA,0.00,VWS V14.01,2013-08-09 14:41:00,
2013-08-09 10:46:00,72.1,70.3,29.93,South,171,5.0,7.0,94,0.00,,-RA,0.00,VWS V14.01,2013-08-09 14:46:00,
2013-08-09 10:51:00,72.1,70.3,29.92,SSE,166,0.0,7.0,94,0.00,,-RA,0.00,VWS V14.01,2013-08-09 14:51:00,
2013-08-09 10:56:00,71.9,70.1,29.92,SSE,159,1.0,7.0,94,0.00,,-RA,0.00,VWS V14.01,2013-08-09 14:56:00,
2013-08-09 11:01:00,71.7,69.9,29.92,SSE,159,4.0,7.0,94,0.00,,-RA,0.00,VWS V14.01,2013-08-09 15:01:00,
2013-08-09 11:06:00,71.5,69.4,29.92,SSE,164,7.0,7.0,93,0.00,,-RA,0.00,VWS V14.01,2013-08-09 15:06:00,
2013-08-09 11:11:00,71.4,69.6,29.92,South,176,6.0,10.0,94,0.00,,-RA,0.00,VWS V14.01,2013-08-09 15:11:00,
2013-08-09 11:16:00,71.6,69.8,29.92,South,169,6.0,10.0,94,0.00,,-RA,0.00,VWS V14.01,2013-08-09 15:16:00,
2013-08-09 11:21:00,71.6,69.8,29.91,SSE,163,2.0,11.0,94,0.00,,-RA,0.00,VWS V14.01,2013-08-09 15:21:00,
2013-08-09 11:26:00,71.5,69.7,29.91,South,178,4.0,11.0,94,0.00,,-RA,0.00,VWS V14.01,2013-08-09 15:26:00,
2013-08-09 11:31:00,71.6,69.8,29.91,SSE,162,6.0,11.0,94,0.00,,-RA,0.00,VWS V14.01,2013-08-09 15:31:00,
2013-08-09 11:36:00,71.7,69.9,29.91,South,184,3.0,12.0,94,0.00,,-RA,0.00,VWS V14.01,2013-08-09 15:36:00,
2013-08-09 11:41:00,71.8,70.3,29.91,SSE,162,4.0,12.0,95,0.00,,-RA,0.00,VWS V14.01,2013-08-09 15:41:00,
2013-08-09 11:46:00,71.8,70.3,29.90,South,175,4.0,12.0,95,0.00,,-RA,0.00,VWS V14.01,2013-08-09 15:46:00,
2013-08-09 11:51:00,71.8,70.3,29.90,SE,143,6.0,12.0,95,0.00,,-RA,0.00,VWS V14.01,2013-08-09 15:51:00,
2013-08-09 11:56:00,71.8,70.3,29.90,SSE,165,4.0,12.0,95,0.00,,-RA,0.00,VWS V14.01,2013-08-09 15:56:00,
2013-08-09 12:01:00,71.8,70.3,29.90,SE,137,8.0,12.0,95,0.00,,RA,0.00,VWS V14.01,2013-08-09 16:01:00,
2013-08-09 12:06:00,71.8,70.3,29.90,SSW,206,4.0,13.0,95,0.00,,RA,0.00,VWS V14.01,2013-08-09 16:06:00,
2013-08-09 12:11:00,71.9,70.4,29.90,SSW,209,4.0,13.0,95,0.00,, +RA,0.00,VWS V14.01,2013-08-09 16:11:00,
2013-08-09 12:16:00,72.0,70.5,29.90,SE,131,7.0,13.0,95,0.00,, +RA,0.00,VWS V14.01,2013-08-09 16:16:00,
2013-08-09 12:21:00,71.9,70.4,29.90,SSW,194,3.0,16.0,95,0.00,, +RA,0.00,VWS V14.01,2013-08-09 16:21:00,
2013-08-09 12:26:00,71.9,70.4,29.89,SE,145,1.0,16.0,95,0.00,, +RA,0.00,VWS V14.01,2013-08-09 16:26:00,
2013-08-09 12:31:00,71.7,70.2,29.89,SSE,152,4.0,16.0,95,0.00,, +RA,0.00,VWS V14.01,2013-08-09 16:31:00,
2013-08-09 12:36:00,71.6,70.1,29.89,SSW,198,2.0,14.0,95,0.00,, +RA,0.00,VWS V14.01,2013-08-09 16:36:00,
2013-08-09 12:41:00,71.6,70.1,29.89,South,189,6.0,14.0,95,0.00,,RA,0.00,VWS V14.01,2013-08-09 16:41:00,
2013-08-09 12:46:00,71.5,70.0,29.89,South,179,5.0,22.0,95,0.00,,RA,0.00,VWS V14.01,2013-08-09 16:46:00,
2013-08-09 12:51:00,71.5,70.0,29.89,SSW,213,5.0,22.0,95,0.00,, +RA,0.00,VWS V14.01,2013-08-09 16:51:00,
2013-08-09 12:56:00,71.6,70.1,29.89,SSW,196,2.0,22.0,95,0.00,, +RA,0.00,VWS V14.01,2013-08-09 16:56:00,
2013-08-09 13:01:00,71.4,69.9,29.88,South,185,6.0,22.0,95,0.00,, +RA,0.00,VWS V14.01,2013-08-09 17:01:00,
2013-08-09 13:06:00,71.3,69.8,29.88,South,184,3.0,12.0,95,0.00,, +RA,0.00,VWS V14.01,2013-08-09 17:06:00,
2013-08-09 13:11:00,71.3,69.8,29.88,SSW,193,12.0,16.0,95,0.00,,RA,0.00,VWS V14.01,2013-08-09 17:11:00,
2013-08-09 13:16:00,71.1,69.6,29.88,South,174,8.0,22.0,95,0.00,,RA,0.00,VWS V14.01,2013-08-09 17:16:00,
2013-08-09 13:21:00,70.6,69.1,29.87,South,173,5.0,22.0,95,0.00,,RA,0.00,VWS V14.01,2013-08-09 17:21:00,
2013-08-09 13:26:00,70.3,68.5,29.87,South,180,4.0,22.0,94,0.00,,RA,0.00,VWS V14.01,2013-08-09 17:26:00,
2013-08-09 13:31:00,70.1,68.3,29.86,SSW,194,4.0,22.0,94,0.00,,RA,0.00,VWS V14.01,2013-08-09 17:31:00,
2013-08-09 13:36:00,69.9,68.4,29.86,South,182,2.0,12.0,95,0.00,,RA,0.00,VWS V14.01,2013-08-09 17:36:00,
2013-08-09 13:41:00,70.0,68.5,29.86,SSE,161,5.0,13.0,95,0.00,,RA,0.00,VWS V14.01,2013-08-09 17:41:00,
2013-08-09 13:46:00,70.2,68.7,29.86,SSW,192,3.0,13.0,95,0.00,,RA,0.00,VWS V14.01,2013-08-09 17:46:00,
2013-08-09 13:51:00,70.3,68.8,29.85,South,178,10.0,13.0,95,0.00,,RA,0.00,VWS V14.01,2013-08-09 17:51:00,
2013-08-09 13:56:00,70.3,68.8,29.85,South,181,5.0,13.0,95,0.00,,RA,0.00,VWS V14.01,2013-08-09 17:56:00,
2013-08-09 14:01:00,70.0,68.5,29.84,SSE,164,9.0,13.0,95,0.00,,RA,0.00,VWS V14.01,2013-08-09 18:01:00,
2013-08-09 14:06:00,69.8,68.3,29.85,SSE,161,0.0,11.0,95,0.00,,RA,0.00,VWS V14.01,2013-08-09 18:06:00,
2013-08-09 14:11:00,69.9,68.4,29.85,South,178,6.0,11.0,95,0.00,,RA,0.00,VWS V14.01,2013-08-09 18:11:00,
2013-08-09 14:16:00,70.1,68.6,29.85,SSE,159,6.0,11.0,95,0.00,,RA,0.00,VWS V14.01,2013-08-09 18:16:00,
2013-08-09 14:21:00,70.2,68.7,29.84,SSE,159,7.0,11.0,95,0.00,,RA,0.00,VWS V14.01,2013-08-09 18:21:00,
2013-08-09 14:26:00,70.3,68.8,29.84,South,177,6.0,11.0,95,0.00,,RA,0.00,VWS V14.01,2013-08-09 18:26:00,
2013-08-09 14:31:00,70.2,68.7,29.83,SE,128,5.0,11.0,95,0.00,, +RA,0.00,VWS V14.01,2013-08-09 18:31:00,
2013-08-09 14:36:00,70.1,68.6,29.83,South,169,4.0,9.0,95,0.00,, +RA,0.00,VWS V14.01,2013-08-09 18:36:00,
2013-08-09 14:41:00,70.0,68.5,29.83,SSE,159,6.0,9.0,95,0.00,, +RA,0.00,VWS V14.01,2013-08-09 18:41:00,
2013-08-09 14:46:00,70.1,68.6,29.83,SE,146,6.0,10.0,95,0.00,, +RA,0.00,VWS V14.01,2013-08-09 18:46:00,
2013-08-09 14:51:00,70.2,68.7,29.83,SE,138,5.0,10.0,95,0.00,, +RA,0.00,VWS V14.01,2013-08-09 18:51:00,
2013-08-09 14:56:00,70.2,68.7,29.83,SSE,157,6.0,10.0,95,0.00,, +RA,0.00,VWS V14.01,2013-08-09 18:56:00,
2013-08-09 15:01:00,70.4,68.9,29.82,South,182,3.0,13.0,95,0.00,, +RA,0.00,VWS V14.01,2013-08-09 19:01:00,
2013-08-09 15:06:00,70.4,68.9,29.81,SSW,198,9.0,11.0,95,0.00,, +RA,0.00,VWS V14.01,2013-08-09 19:06:00,
2013-08-09 15:11:00,70.4,68.9,29.80,South,184,7.0,14.0,95,0.00,, +RA,0.00,VWS V14.01,2013-08-09 19:11:00,
2013-08-09 15:16:00,70.5,69.3,29.79,South,170,13.0,14.0,96,0.00,, +RA,0.00,VWS V14.01,2013-08-09 19:16:00,
2013-08-09 15:21:00,70.5,69.3,29.79,South,185,5.0,15.0,96,0.00,, +RA,0.00,VWS V14.01,2013-08-09 19:21:00,
2013-08-09 15:26:00,70.4,69.2,29.79,SSE,165,5.0,17.0,96,0.00,, +RA,0.00,VWS V14.01,2013-08-09 19:26:00,
2013-08-09 15:31:00,70.6,69.4,29.79,SSE,148,9.0,17.0,96,0.00,, +RA,0.00,VWS V14.01,2013-08-09 19:31:00,
2013-08-09 15:36:00,70.6,69.4,29.78,South,176,4.0,14.0,96,0.00,, +RA,0.00,VWS V14.01,2013-08-09 19:36:00,
2013-08-09 15:41:00,70.6,69.4,29.78,SE,128,6.0,17.0,96,0.00,,RA,0.00,VWS V14.01,2013-08-09 19:41:00,
2013-08-09 15:46:00,70.5,69.3,29.77,SE,128,4.0,17.0,96,0.00,,RA,0.00,VWS V14.01,2013-08-09 19:46:00,
2013-08-09 15:51:00,70.5,69.3,29.77,SSE,161,7.0,17.0,96,0.00,,RA,0.00,VWS V14.01,2013-08-09 19:51:00,
2013-08-09 15:56:00,70.6,69.4,29.76,SSW,198,10.0,17.0,96,0.00,,RA,0.00,VWS V14.01,2013-08-09 19:56:00,
2013-08-09 16:01:00,70.7,69.5,29.76,SSE,166,6.0,17.0,96,0.00,,-RA,0.00,VWS V14.01,2013-08-09 20:01:00,
2013-08-09 16:06:00,70.4,69.2,29.76,SSE,167,5.0,11.0,96,0.00,,-RA,0.00,VWS V14.01,2013-08-09 20:06:00,
2013-08-09 16:11:00,70.1,68.9,29.76,SSE,148,13.0,17.0,96,0.00,,-RA,0.00,VWS V14.01,2013-08-09 20:11:00,
2013-08-09 16:16:00,69.6,68.1,29.75,South,186,5.0,17.0,95,0.00,,-RA,0.00,VWS V14.01,2013-08-09 20:16:00,
2013-08-09 16:21:00,69.4,68.2,29.75,SSW,194,5.0,17.0,96,0.00,,-RA,0.00,VWS V14.01,2013-08-09 20:21:00,
2013-08-09 16:26:00,69.4,68.2,29.75,SE,126,5.0,17.0,96,0.00,,-RA,0.00,VWS V14.01,2013-08-09 20:26:00,
2013-08-09 16:31:00,69.3,68.1,29.75,SSW,196,4.0,17.0,96,0.00,,-RA,0.00,VWS V14.01,2013-08-09 20:31:00,
2013-08-09 16:36:00,69.3,68.1,29.75,South,173,7.0,12.0,96,0.00,,-RA,0.00,VWS V14.01,2013-08-09 20:36:00,
2013-08-09 16:41:00,69.2,68.0,29.74,SSE,155,4.0,17.0,96,0.00,,-RA,0.00,VWS V14.01,2013-08-09 20:41:00,
2013-08-09 16:46:00,69.2,68.0,29.74,SSE,160,4.0,17.0,96,0.00,,-RA,0.00,VWS V14.01,2013-08-09 20:46:00,
2013-08-09 16:51:00,69.2,68.0,29.74,SE,144,1.0,17.0,96,0.00,,-RA,0.00,VWS V14.01,2013-08-09 20:51:00,
2013-08-09 16:56:00,69.3,68.1,29.74,South,189,2.0,17.0,96,0.00,,-RA,0.00,VWS V14.01,2013-08-09 20:56:00,
2013-08-09 17:01:00,69.4,68.2,29.74,South,180,8.0,17.0,96,0.00,,-RA,0.00,VWS V14.01,2013-08-09 21:01:00,
2013-08-09 17:06:00,69.6,68.4,29.74,SSE,167,5.0,12.0,96,0.00,,-RA,0.00,VWS V14.01,2013-08-09 21:06:00,
2013-08-09 17:11:00,69.8,68.6,29.73,SSE,162,2.0,12.0,96,0.00,,-RA,0.00,VWS V14.01,2013-08-09 21:11:00,
2013-08-09 17:16:00,69.9,68.7,29.74,SSE,157,4.0,12.0,96,0.00,,-RA,0.00,VWS V14.01,2013-08-09 21:16:00,
2013-08-09 17:21:00,70.0,68.8,29.73,SSE,148,0.0,12.0,96,0.00,,-RA,0.00,VWS V14.01,2013-08-09 21:21:00,
2013-08-09 17:26:00,70.1,68.9,29.74,SSE,148,1.0,12.0,96,0.00,,-RA,0.00,VWS V14.01,2013-08-09 21:26:00,
2013-08-09 17:31:00,70.3,69.1,29.73,SSE,153,0.0,12.0,96,0.00,,-RA,0.00,VWS V14.01,2013-08-09 21:31:00,
2013-08-09 17:36:00,71.2,70.0,29.73,South,185,5.0,12.0,96,0.00,,-RA,0.00,VWS V14.01,2013-08-09 21:36:00,
2013-08-09 17:41:00,71.9,70.7,29.73,South,174,4.0,12.0,96,0.00,,-RA,0.00,VWS V14.01,2013-08-09 21:41:00,
2013-08-09 17:46:00,72.5,71.6,29.73,South,184,7.0,12.0,97,0.00,,-RA,0.00,VWS V14.01,2013-08-09 21:46:00,
2013-08-09 17:51:00,72.8,71.6,29.72,South,189,3.0,12.0,96,0.00,,-RA,0.00,VWS V14.01,2013-08-09 21:51:00,
2013-08-09 17:56:00,73.0,71.8,29.72,South,182,5.0,12.0,96,0.00,,-RA,0.00,VWS V14.01,2013-08-09 21:56:00,
2013-08-09 18:01:00,73.2,72.3,29.72,South,185,3.0,12.0,97,0.00,,-RA,0.00,VWS V14.01,2013-08-09 22:01:00,
2013-08-09 18:06:00,73.3,72.1,29.72,SSW,195,4.0,6.0,96,0.00,,-RA,0.00,VWS V14.01,2013-08-09 22:06:00,
2013-08-09 18:11:00,73.4,72.2,29.72,SSW,192,0.0,6.0,96,0.00,,-RA,0.00,VWS V14.01,2013-08-09 22:11:00,
2013-08-09 18:16:00,73.5,72.3,29.72,WSW,238,0.0,6.0,96,0.00,,-RA,0.00,VWS V14.01,2013-08-09 22:16:00,
2013-08-09 18:21:00,73.7,72.5,29.72,SW,236,0.0,6.0,96,0.00,,-RA,0.00,VWS V14.01,2013-08-09 22:21:00,
2013-08-09 18:26:00,73.8,72.6,29.72,West,259,5.0,8.0,96,0.00,,-RA,0.00,VWS V14.01,2013-08-09 22:26:00,
2013-08-09 18:31:00,73.9,72.7,29.72,West,273,0.0,8.0,96,0.00,,-RA,0.00,VWS V14.01,2013-08-09 22:31:00,
2013-08-09 18:36:00,74.0,72.8,29.72,NW,308,2.0,10.0,96,0.00,,-RA,0.00,VWS V14.01,2013-08-09 22:36:00,
2013-08-09 18:41:00,74.1,72.9,29.72,SW,230,1.0,10.0,96,0.00,,-RA,0.00,VWS V14.01,2013-08-09 22:41:00,
2013-08-09 18:46:00,74.2,73.0,29.72,West,281,0.0,10.0,96,0.00,,-RA,0.00,VWS V14.01,2013-08-09 22:46:00,
2013-08-09 18:51:00,74.2,73.0,29.72,WSW,242,1.0,10.0,96,0.00,,-RA,0.00,VWS V14.01,2013-08-09 22:51:00,
2013-08-09 18:56:00,74.3,73.1,29.72,SSW,204,4.0,10.0,96,0.00,,-RA,0.00,VWS V14.01,2013-08-09 22:56:00,
2013-08-09 19:01:00,74.3,73.1,29.72,SSW,205,0.0,10.0,96,0.00,,BKN150,0.00,VWS V14.01,2013-08-09 23:01:00,
2013-08-09 19:06:00,74.3,73.1,29.72,SW,217,1.0,4.0,96,0.00,,BKN150,0.00,VWS V14.01,2013-08-09 23:06:00,
2013-08-09 19:11:00,74.4,73.2,29.72,SSW,192,3.0,6.0,96,0.00,,BKN150,0.00,VWS V14.01,2013-08-09 23:11:00,
2013-08-09 19:16:00,74.4,73.2,29.71,South,186,2.0,6.0,96,0.00,,BKN150,0.00,VWS V14.01,2013-08-09 23:16:00,
2013-08-09 19:21:00,74.4,73.2,29.71,SSW,209,4.0,7.0,96,0.00,,BKN150,0.00,VWS V14.01,2013-08-09 23:21:00,
2013-08-09 19:25:00,74.5,73.3,29.72,West,279,0.0,7.0,96,0.00,,BKN150,0.00,VWS V14.01,2013-08-09 23:25:00,
2013-08-09 19:30:00,74.5,73.3,29.72,WSW,258,0.0,7.0,96,0.00,,BKN150,0.00,VWS V14.01,2013-08-09 23:30:00,
2013-08-09 19:35:00,74.5,73.3,29.73,WSW,244,0.0,3.0,96,0.00,,BKN150,0.00,VWS V14.01,2013-08-09 23:35:00,
2013-08-09 19:40:00,74.4,73.2,29.73,WSW,245,2.0,4.0,96,0.00,,BKN150,0.00,VWS V14.01,2013-08-09 23:40:00,
2013-08-09 19:45:00,74.4,73.2,29.73,WSW,250,0.0,4.0,96,0.00,,BKN150,0.00,VWS V14.01,2013-08-09 23:45:00,
2013-08-09 19:50:00,74.4,73.2,29.73,WSW,258,1.0,4.0,96,0.00,,BKN150,0.00,VWS V14.01,2013-08-09 23:50:00,
2013-08-09 19:55:00,74.4,73.2,29.73,SW,232,1.0,4.0,96,0.00,,BKN150,0.00,VWS V14.01,2013-08-09 23:55:00,
2013-08-09 20:00:00,74.4,72.9,29.73,SW,231,2.0,7.0,95,0.00,,BKN150,0.00,VWS V14.01,2013-08-10 00:00:00,
2013-08-09 20:05:00,74.5,73.3,29.74,SW,230,0.0,3.0,96,0.00,,BKN150,0.00,VWS V14.01,2013-08-10 00:05:00,
2013-08-09 20:10:00,74.4,72.9,29.74,SSE,154,4.0,5.0,95,0.00,,BKN150,0.00,VWS V14.01,2013-08-10 00:10:00,
2013-08-09 20:15:00,74.5,73.3,29.73,SW,222,1.0,7.0,96,0.00,,BKN150,0.00,VWS V14.01,2013-08-10 00:15:00,
2013-08-09 20:20:00,74.5,73.0,29.73,SW,228,0.0,14.0,95,0.00,,BKN150,0.00,VWS V14.01,2013-08-10 00:20:00,
2013-08-09 20:25:00,74.5,73.3,29.73,SW,221,5.0,14.0,96,0.00,,BKN150,0.00,VWS V14.01,2013-08-10 00:25:00,
2013-08-09 20:30:00,74.6,73.4,29.73,SW,223,1.0,14.0,96,0.00,,BKN150,0.00,VWS V14.01,2013-08-10 00:30:00,
2013-08-09 20:35:00,74.5,73.0,29.74,West,263,3.0,7.0,95,0.00,,BKN150,0.00,VWS V14.01,2013-08-10 00:35:00,
2013-08-09 20:40:00,74.6,73.1,29.74,WSW,254,0.0,7.0,95,0.00,,BKN150,0.00,VWS V14.01,2013-08-10 00:40:00,
2013-08-09 20:45:00,74.5,73.0,29.75,WSW,254,0.0,7.0,95,0.00,,BKN150,0.00,VWS V14.01,2013-08-10 00:45:00,
2013-08-09 20:50:00,74.6,73.1,29.75,WSW,256,0.0,7.0,95,0.00,,BKN150,0.00,VWS V14.01,2013-08-10 00:50:00,
2013-08-09 20:55:00,74.5,73.0,29.75,West,260,2.0,7.0,95,0.00,,BKN150,0.00,VWS V14.01,2013-08-10 00:55:00,
2013-08-09 21:00:00,74.6,73.1,29.75,West,261,1.0,7.0,95,0.00,,SCT150,0.00,VWS V14.01,2013-08-10 01:00:00,
2013-08-09 21:05:00,74.6,73.1,29.76,West,261,0.0,4.0,95,0.00,,SCT150,0.00,VWS V14.01,2013-08-10 01:05:00,
2013-08-09 21:10:00,74.5,73.0,29.76,West,261,0.0,4.0,95,0.00,,SCT150,0.00,VWS V14.01,2013-08-10 01:10:00,
2013-08-09 21:15:00,74.4,72.9,29.76,West,261,1.0,4.0,95,0.00,,SCT150,0.00,VWS V14.01,2013-08-10 01:15:00,
2013-08-09 21:20:00,74.4,72.9,29.76,West,261,0.0,4.0,95,0.00,,SCT150,0.00,VWS V14.01,2013-08-10 01:20:00,
2013-08-09 21:25:00,74.4,72.9,29.76,West,261,0.0,4.0,95,0.00,,SCT150,0.00,VWS V14.01,2013-08-10 01:25:00,
2013-08-09 21:30:00,74.3,72.8,29.76,West,261,0.0,4.0,95,0.00,,SCT150,0.00,VWS V14.01,2013-08-10 01:30:00,
2013-08-09 21:35:00,74.2,72.7,29.76,West,261,0.0,3.0,95,0.00,,SCT150,0.00,VWS V14.01,2013-08-10 01:35:00,
2013-08-09 21:40:00,74.2,72.7,29.76,West,261,1.0,3.0,95,0.00,,SCT150,0.00,VWS V14.01,2013-08-10 01:40:00,
2013-08-09 21:45:00,74.2,72.7,29.76,West,261,1.0,4.0,95,0.00,,SCT150,0.00,VWS V14.01,2013-08-10 01:45:00,
2013-08-09 21:50:00,74.1,72.6,29.75,West,261,0.0,4.0,95,0.00,,SCT150,0.00,VWS V14.01,2013-08-10 01:50:00,
2013-08-09 21:55:00,74.1,72.6,29.75,West,261,0.0,4.0,95,0.00,,SCT150,0.00,VWS V14.01,2013-08-10 01:55:00,
2013-08-09 22:00:00,74.1,72.6,29.75,West,261,0.0,4.0,95,0.00,,SCT150,0.00,VWS V14.01,2013-08-10 02:00:00,
2013-08-09 22:05:00,74.0,72.5,29.75,West,261,0.0,4.0,95,0.00,,SCT150,0.00,VWS V14.01,2013-08-10 02:05:00,
2013-08-09 22:10:00,74.0,72.5,29.75,West,261,0.0,4.0,95,0.00,,SCT150,0.00,VWS V14.01,2013-08-10 02:10:00,
2013-08-09 22:15:00,73.9,72.4,29.75,West,261,0.0,4.0,95,0.00,,SCT150,0.00,VWS V14.01,2013-08-10 02:15:00,
2013-08-09 22:20:00,73.9,72.7,29.75,West,261,0.0,4.0,96,0.00,,SCT150,0.00,VWS V14.01,2013-08-10 02:20:00,
2013-08-09 22:25:00,73.8,72.6,29.75,West,261,2.0,4.0,96,0.00,,SCT150,0.00,VWS V14.01,2013-08-10 02:25:00,
2013-08-09 22:30:00,73.8,72.6,29.75,West,261,0.0,4.0,96,0.00,,SCT150,0.00,VWS V14.01,2013-08-10 02:30:00,
2013-08-09 22:35:00,73.7,72.2,29.75,West,261,0.0,2.0,95,0.00,,SCT150,0.00,VWS V14.01,2013-08-10 02:35:00,
2013-08-09 22:40:00,73.7,72.2,29.75,West,261,0.0,2.0,95,0.00,,SCT150,0.00,VWS V14.01,2013-08-10 02:40:00,
2013-08-09 22:45:00,73.6,72.1,29.76,West,261,0.0,3.0,95,0.00,,SCT150,0.00,VWS V14.01,2013-08-10 02:45:00,
2013-08-09 22:50:00,73.6,72.1,29.76,West,261,0.0,3.0,95,0.00,,SCT150,0.00,VWS V14.01,2013-08-10 02:50:00,
2013-08-09 22:55:00,73.5,72.3,29.76,West,261,0.0,4.0,96,0.00,,SCT150,0.00,VWS V14.01,2013-08-10 02:55:00,
2013-08-09 23:00:00,73.5,72.3,29.76,West,261,0.0,4.0,96,0.00,,SCT150,0.00,VWS V14.01,2013-08-10 03:00:00,
2013-08-09 23:05:00,73.4,72.2,29.76,West,261,0.0,0.0,96,0.00,,SCT150,0.00,VWS V14.01,2013-08-10 03:05:00,
2013-08-09 23:10:00,73.3,72.1,29.76,West,261,0.0,0.0,96,0.00,,SCT150,0.00,VWS V14.01,2013-08-10 03:10:00,
2013-08-09 23:15:00,73.3,72.1,29.76,West,261,0.0,0.0,96,0.00,,SCT150,0.00,VWS V14.01,2013-08-10 03:15:00,
2013-08-09 23:20:00,73.2,72.0,29.76,West,261,0.0,1.0,96,0.00,,SCT150,0.00,VWS V14.01,2013-08-10 03:20:00,
2013-08-09 23:25:00,73.1,71.9,29.76,West,261,1.0,1.0,96,0.00,,SCT150,0.00,VWS V14.01,2013-08-10 03:25:00,
2013-08-09 23:30:00,73.1,71.6,29.76,West,261,0.0,2.0,95,0.00,,SCT150,0.00,VWS V14.01,2013-08-10 03:30:00,
2013-08-09 23:35:00,73.0,71.8,29.76,West,261,0.0,2.0,96,0.00,,SCT150,0.00,VWS V14.01,2013-08-10 03:35:00,
2013-08-09 23:40:00,73.0,71.8,29.76,West,261,0.0,2.0,96,0.00,,SCT150,0.00,VWS V14.01,2013-08-10 03:40:00,
2013-08-09 23:45:00,72.9,71.7,29.76,West,261,0.0,2.0,96,0.00,,SCT150,0.00,VWS V14.01,2013-08-10 03:45:00,
2013-08-09 23:50:00,72.9,71.7,29.76,West,261,0.0,2.0,96,0.00,,SCT150,0.00,VWS V14.01,2013-08-10 03:50:00,
2013-08-09 23:55:00,72.8,71.6,29.76,West,261,0.0,2.0,96,0.00,,SCT150,0.00,VWS V14.01,2013-08-10 03:55:00,